Overview Statistics Trail Chart Weather Telemetry Raw packets
 

This is the latest recevied weather packets stored in our database for station/object LA4GY-1. If no packets are shown the sender has not sent any weather packets the latest 10 day(s).

<< 52 53 54 55 56 57 58 >>
Time Temp. Humidity Pressure Rain* Wind** Luminosity Snow
1787843481 20° C 63% 1022.8 hPa 0 mm - - -
1787842881 20° C 65% 1022.7 hPa 0 mm - - -
1787842281 20° C 64% 1022.8 hPa 0 mm - - -
1787841681 20.56° C 63% 1022.9 hPa 0 mm - - -
1787841081 20.56° C 59% 1023 hPa 0 mm - - -
1787840481 20.56° C 59% 1023.1 hPa 0 mm - - -
1787839881 20.56° C 56% 1023.1 hPa 0 mm - - -
1787839281 20.56° C 58% 1023.2 hPa 0 mm - - -
1787838681 21.11° C 58% 1023.2 hPa 0 mm - - -
1787838081 21.11° C 59% 1023.3 hPa 0 mm - - -
1787837481 21.11° C 59% 1023.4 hPa 0 mm - - -
1787836881 21.11° C 56% 1023.5 hPa 0 mm - - -
1787836281 21.11° C 62% 1023.6 hPa 0 mm - - -
1787835681 21.11° C 58% 1023.6 hPa 0 mm - - -
1787835081 20.56° C 60% 1023.7 hPa 0 mm - - -
1787834480 20.56° C 59% 1023.8 hPa 0 mm - - -
1787833882 20.56° C 59% 1023.8 hPa 0 mm - - -
1787833280 20° C 59% 1024 hPa 0 mm - - -
1787832684 20° C 62% 1024.1 hPa 0 mm - - -
1787832080 20° C 62% 1024.2 hPa 0 mm - - -
1787831480 20° C 62% 1024.3 hPa 0 mm - - -
1787830880 19.44° C 64% 1024.3 hPa 0 mm - - -
1787830280 18.89° C 65% 1024.3 hPa 0 mm - - -
1787829680 18.89° C 65% 1024.4 hPa 0 mm - - -
1787829080 18.33° C 66% 1024.4 hPa 0 mm - - -

* Rain latest hour (hover to see other rain measurements)
** Current wind speed in m/s (hover to see current wind gust speed)